This is the latest recevied weather packets stored in our database for station/object LZ1HCO-25. If no packets are shown the sender has not sent any weather packets the latest 10 day(s).
| Time | Temp. | Humidity | Pressure | Rain* | Wind** | Luminosity | Snow |
|---|---|---|---|---|---|---|---|
| 1778120675 | 17.78° C | 83% | 967 hPa | - | - | 0 W/m² | - |
| 1778120363 | 17.78° C | 83% | 967 hPa | - | - | 0 W/m² | - |
| 1778120052 | 17.78° C | 85% | 967 hPa | - | - | 0 W/m² | - |
| 1778119741 | 17.78° C | 85% | 967 hPa | - | - | 0 W/m² | - |
| 1778119429 | 17.78° C | 84% | 967 hPa | - | - | 0 W/m² | - |
| 1778119118 | 18.33° C | 81% | 967 hPa | - | - | 0 W/m² | - |
| 1778118807 | 18.33° C | 79% | 967 hPa | - | - | 0 W/m² | - |
| 1778118495 | 18.33° C | 79% | 967 hPa | - | - | 0 W/m² | - |
| 1778118184 | 18.33° C | 79% | 967 hPa | - | - | 0 W/m² | - |
| 1778117873 | 18.33° C | 79% | 967 hPa | - | - | 0 W/m² | - |
| 1778117561 | 18.33° C | 83% | 967 hPa | - | - | 0 W/m² | - |
| 1778117250 | 18.33° C | 83% | 967 hPa | - | - | 0 W/m² | - |
| 1778116939 | 18.33° C | 84% | 967 hPa | - | - | 0 W/m² | - |
| 1778116627 | 18.33° C | 87% | 967 hPa | - | - | 0 W/m² | - |
| 1778116316 | 17.78° C | 95% | 967 hPa | - | - | 0 W/m² | - |
| 1778116004 | 16.11° C | 99% | 967 hPa | - | - | 0 W/m² | - |
| 1778115785 | 15.56° C | 99% | 967 hPa | - | - | 0 W/m² | - |
| 1778115473 | 15.56° C | 99% | 967 hPa | - | - | 0 W/m² | - |
| 1778115162 | 15.56° C | 99% | 967 hPa | - | - | 0 W/m² | - |
| 1778114851 | 15° C | 99% | 967 hPa | - | - | 0 W/m² | - |
| 1778114539 | 15° C | 99% | 967 hPa | - | - | 0 W/m² | - |
| 1778114228 | 15.56° C | 99% | 967 hPa | - | - | 0 W/m² | - |
| 1778113917 | 15° C | 99% | 967 hPa | - | - | 0 W/m² | - |
| 1778113605 | 14.44° C | 99% | 967 hPa | - | - | 0 W/m² | - |
| 1778113294 | 14.44° C | 99% | 967 hPa | - | - | 0 W/m² | - |
* Rain since midnight (hover to see other rain measurements)
** Current wind speed in m/s (hover to see current wind gust speed)